Weather in Beya

Russia / Republic of Khakassia     53°02′44″N   90°55′14″E
temp.,
°C
wind,
m/s
gust,
m/s
humid.,
%
clouds,
%
prec.,
mm/h
press.,
hPa
HPBL,
m
3 march, wed
wed301:00−7sw2392100 0.3 101556
04:00−7ssw2290100 0.1 101541
07:00−8wsw1194100 0.4 101626
10:00−7n1295100 0.6 1015136
13:00−6n2192100 1.2 1015268
16:00−5nnw1289100 0.1 1016370
19:00−9ne1198100 0.4 101921
22:00−9sw2393100 0.1 102237
4 march, thu
thu401:00−9ssw4789100 0.3 1025219
04:00−11ssw4986100 0.0 1027305
07:00−12s338370 0.0 102945
10:00−8s23810 0.0 1028150
13:00−3wnw14720 0.0 1027899
16:00−4n228915 0.0 1025344
19:00−6sse128650 0.0 102621
22:00−7s227797 0.0 102721
5 march, fri
fri501:00−9s338083 0.0 102628
04:00−12s337887 0.0 102631
07:00−12s337770 0.0 102535
10:00−7sse2279100 0.0 1023105
13:00−4wnw1282100 0.0 1020245
16:000wsw41075100 0.0 10201236
19:00−3sw5158391 0.0 10241012
22:00−5sw515858 0.0 10261021
6 march, sat
sat601:00−6ssw4138318 0.0 1027482
04:00−7ssw338692 0.0 102745
07:00−8sse338496 0.0 102861
10:00−4s3475100 0.0 1027144
13:000sw31171100 0.0 10241579
16:00+1w2681100 0.0 1021674
19:00−3s2275100 0.0 102221
22:00−4sse3377100 0.0 102228
7 march, sun
sun701:00−5s3382100 0.0 102139
04:00−8s4474100 0.0 102158
07:00−7s4472100 0.0 102249
10:00−3s3475100 0.0 1022138
13:000wsw2476100 0.0 1020569
16:00+1n1187100 0.0 1019191
19:00−3se1189100 0.0 102121
22:00−5s228489 0.0 102223